Location: Newark
(49.8969°N, 3.3422°E)
Time: 11:21:28
(UTC+00:00)

Explorer 7 - Pass Details

Date: 27 January 2020
Orbit: 485 x 679 km, 50.3° (Epoch: 25 February)

Event Time Altitude Azimuth Distance (km) Brightness Sun altitude
Rises 00:20:24 0° 266° (W) 2,552 - -58.5°
Reaches altitude 10° 00:22:34 10° 267° (W) 1,668 - -58.4°
Maximum altitude 00:26:19 84° 354° (N) 495 - -58.3°
Drops below altitude 10° 00:30:08 10° 85° (E) 1,694 - -58.1°
Sets 00:32:21 0° 86° (E) 2,596 - -58.0°
